Location: Ferintosh
(52.7647°N, 112.9692°W)
Time: 14:28:42
(UTC+00:00)

Transit 2A Rocket - Pass Details

Date: 26 May 2024
Orbit: 583 x 910 km, 66.7° (Epoch: 14 June)

Event Time Altitude Azimuth Distance (km) Brightness Sun altitude
Rises 12:18:12 0° 250° (WSW) 3,080 7.4 6.7°
Reaches altitude 10° 12:20:36 10° 259° (WSW) 2,217 6.8 7.1°
Maximum altitude 12:25:19 37° 327° (NNW) 1,190 6.1 7.7°
Drops below altitude 10° 12:30:29 10° 34° (NE) 2,430 8.8 8.4°
Sets 12:33:15 0° 42° (NE) 3,416 9.7 8.8°
